Regional Weather Roundup
Issued by NWS

Home | Current Version | Previous Version | Graphics & Text | Print | Product List | Glossary Off
Versions: 1 2 3 4 5 6 7 8 9 10 11 12 13 14 15 16 17 18 19 20 21 22 23 24 25 26 27 28 29 30 31 32 33 34 35 36 37 38 39 40 41 42 43 44 45 46 47 48 49 50

000
ASUS43 KTOP 270859
RWRKS

WEATHER ROUNDUP FOR KANSAS
NATIONAL WEATHER SERVICE GOODLAND KS
300 AM CST FRI FEB 27 2015

NOTE:  "FAIR" INDICATES FEW OR NO CLOUDS BELOW 12,000 FEET WITH NO
SIGNIFICANT WEATHER AND/OR OBSTRUCTIONS TO VISIBILITY.

KSZ001>006-013>018-027>032-041>047-271000-
NORTHWEST KANSAS

CITY           SKY/WX    TMP DP  RH WIND       PRES   REMARKS
GOODLAND       LGT SNOW  12   6  77 SE10      30.30F WCI  -1
HAYS           CLOUDY    10  -6  48 E9        30.48F
HILL CITY      CLOUDY     9  -2  61 E7        30.48F
RUSSELL        CLOUDY     7   2  80 E5        30.50S
$$

KSZ061>065-074>080-084>089-271000-
SOUTHWEST KANSAS

CITY           SKY/WX    TMP DP  RH WIND       PRES   REMARKS
DODGE CITY     CLOUDY    16  -1  47 SE8       30.41S
ELKHART          N/A     14   5  67 E12         N/A  WCI   0
GARDEN CITY    LGT SNOW  13   8  81 E9        30.37S
GREAT BEND     CLOUDY    10  -2  56 E9        30.50F
LIBERAL        CLOUDY    16   5  62 E13       30.36F WCI   2
$$

KSZ066>073-081>083-090>101-271000-
SOUTHEAST KANSAS

CITY           SKY/WX    TMP DP  RH WIND       PRES   REMARKS
CHANUTE        CLEAR      9   1  70 N7        30.59S
COFFEYVILLE    CLEAR     11   1  64 N9        30.59S
HUTCHINSON     CLOUDY    11   1  64 NE8       30.53F
MEDICINE LODGE   N/A     15   1  53 E8        30.51S
NEWTON         MOCLDY     9  -2  61 NE8       30.54F
PARSONS        CLEAR     10   1  67 N6        30.60S
WICHITA INTL   CLOUDY    12   1  61 NE14      30.54F WCI  -3
WICHITA JABRA  CLOUDY     9   1  70 NE12      30.54F WCI  -6
WINFIELD       PTCLDY    11   2  67 NE9       30.55F
$$

KSZ007>012-019>026-033>040-048>060-102>105-271000-
NORTHEAST KANSAS

CITY           SKY/WX    TMP DP  RH WIND       PRES   REMARKS
CONCORDIA      PTCLDY     4  -1  80 CALM      30.56S
EMPORIA        PTCLDY     6   1  80 NE7       30.56F
LAWRENCE       CLEAR      2  -4  76 NW3       30.62R
MANHATTAN      CLEAR      6   1  80 CALM      30.60S
OLATHE IND     CLEAR      2  -4  76 N6        30.60R
OLATHE EXE     CLEAR      5  -5  63 N7        30.57R
SALINA         PTCLDY     9   1  70 NE3       30.58F
TOPEKA BILLARD CLEAR      5  -2  72 NW3       30.62R
TOPEKA FORBES  CLEAR      5  -2  72 CALM      30.59R
$$



USA.gov is the U.S. government's official web portal to all federal, state and local government web resources and services.